SCOUT X-4 R/B, 809

Orbit data source: Space-Track

SCOUT X-4 R/B, 809 is space debris in LEO originally from a launch on Thu, 04 Jun 1964 UTC launched from the Air Force Western Test Range (AFWTR). Debris objects in space refer to the collection of defunct objects orbiting the Earth. Examples of debris include non-operational satellites, rocket bodies, and fragments generated from explosions, collisions, or faulty payload assembly.

Loading next visibility...
Identifier
809, 1964-026D
Orbit
LEO
Country
Flag of USUS
Related business
Manufacturer
ABL
Mission
Spacecraft
Bus & Motor
ALTAIR, Unknown motor
Mass
33 kg wet, 33 kg dry
Launch date (UTC)
1964-06-04 (61 years ago)
Launch vehicle
Unknown
Launch site
Air Force Western Test Range (AFWTR)
Object type
Payload
Rocket body
Debris
Shape & HBR
Unknown
Radar Cross Section
Medium (>0.1 m² and <1 m²)

Expand to show TLE details & history
Last TLE update: 6 hours ago

TLE from 6 hours ago
0 SCOUT X-4 R/B
1 00809U 64026D   25297.99349675  .00000531  00000-0  28979-3 0  9999
2 00809  90.4482 166.0902 0042092  95.3560 265.2429 14.10645421144989
Epoch: 2025-10-24T23:50Z
TLE epoch observation values (Epoch: 2025-10-24T23:50:38.119Z)
Latitude
-0.00005°
Longitude
134.80094°
Altitude
862.859 km
Speed
7.42 km/s
True Right ascension
11h 04m 21s
True Declination
0° 00' 00"
Sunlit
Object was in daylight at epoch
Visualization orbit readout
Latitude
Unknown
Longitude
Unknown
Altitude
Unknown
Speed
Unknown
Apparent Right ascension
Unknown
Apparent Declination
Unknown
Sunlit
N/A
Visualization observer readout
Local Sidereal Time
01:10:08
Azimuth
Unknown
Elevation
Unknown
Doppler factor
Unknown
Orbital elements
Apogee altitude
884.568 km
Perigee altitude
823.684 km
Semi-major axis
7,232.263 km
Eccentricity
0.00421
Inclination
90.4482°
RAAN
166.0902°
Arg. of periapsis
95.356°
True anomaly
264.76244°
Mean anomaly
265.2429°
Eccentric anomaly
265.00265°
Mean motion
3.52884 °/min
Orbital period
102.02 mins
BSTAR
0.00028979
Loading maneuver chart data...
Computing Atmospheric mass density...
Loading historical data...
Loading historical data...
Loading historical data...
Loading historical data...
Loading historical data...
Loading historical data...
Loading historical data...

Documentation

Showing up to 5 results
|